Find OneWeb SL0552

NORAD ID: 56054 Int'l Des: 2023-043 Owner: ONEWEBN Country: UK Constellation: oneweb operational
LEOCIRCULARPOLARONEWEB_TYPE

实时位置

正在加载3D地球...

关于 OneWeb SL0552

正在加载描述...

即将过境

Passes for default location (London). Set your location on the main map for personalized predictions.

高度历史

Loading altitude history...

两行轨道根数

1 56054U 23043J 26124.62260086 .00000037 00000-0 57005-4 0 9998
2 56054 87.9229 252.6561 0001953 94.3068 265.8290 13.21827510152475
Epoch: May 4, 2026 • Age: 7 hours

当前状态

高度 1203.7 km
速度 7.25 km/s
星下点 -64.42°S, 110.23°W
发射日期 Mar 26, 2023
运行时间 3.1 years
类型 internet

技术详情

分类 Payload
质量 148.00 kg
干质量 140.00 kg
总质量 148.00 kg
长度 1.30 m
直径 1.00 m
跨度 5.00 m
形状 Trapezoid+2 pan
制造商 ONEWUS
平台类型 ARROW
阶段状态 In Orbit
所有者/国家 ONEWEBN/UK

Most Searched